| time (UTC) | temp C | wind direction | speed KPH | gust KPH | rain 1hr cm | rain 24hr cm | rain mn cm | humidity % | barometer mb |
| 20260507060916 | 10 | 357 | 3.2 | 11.3 | 0.00 | 0.00 | 0.00 | 77 | 1014.7 |
| 20260507050915 | 8 | 19 | 0.0 | 8.0 | 0.00 | 0.00 | 0.00 | 80 | 1014.2 |
| 20260507043916 | 8 | 39 | 0.0 | 9.7 | 0.00 | 0.00 | 0.00 | 81 | 1013.7 |
| 20260507030915 | 8 | 42 | 0.0 | 4.8 | 0.00 | 0.00 | 0.00 | 81 | 1013.4 |
| 20260507020917 | 8 | 41 | 0.0 | 4.8 | 0.00 | 0.00 | 0.00 | 80 | 1013.0 |
| 20260507010915 | 9 | 41 | 0.0 | 4.8 | 0.00 | 0.00 | 0.00 | 77 | 1012.7 |
| 20260507000912 | 11 | 41 | 0.0 | 0.0 | 0.00 | 0.00 | 0.00 | 76 | 1012.5 |
| 20260506230912 | 11 | 41 | 0.0 | 1.6 | 0.00 | 0.00 | 0.00 | 73 | 1012.1 |
| 20260506220912 | 11 | 41 | 0.0 | 3.2 | 0.00 | 0.00 | 0.00 | 71 | 1011.9 |
| 20260506210911 | 11 | 41 | 1.6 | 4.8 | 0.00 | 0.00 | 0.00 | 70 | 1011.7 |
| 20260506200907 | 11 | 41 | 1.6 | 4.8 | 0.00 | 0.00 | 0.00 | 67 | 1011.3 |
| 20260506190908 | 11 | 41 | 0.0 | 6.4 | 0.00 | 0.00 | 0.00 | 67 | 1010.7 |
| 20260506180910 | 12 | 32 | 3.2 | 9.7 | 0.00 | 0.00 | 0.00 | 65 | 1010.0 |
| 20260506170907 | 12 | 36 | 3.2 | 12.9 | 0.00 | 0.00 | 0.00 | 66 | 1009.6 |
| 20260506163913 | 11 | 37 | 8.0 | 19.3 | 0.00 | 0.00 | 0.00 | 68 | 1009.5 |
| 20260506150908 | 12 | 51 | 3.2 | 14.5 | 0.00 | 0.00 | 0.00 | 61 | 1009.3 |
| 20260506140907 | 13 | 12 | 3.2 | 17.7 | 0.00 | 0.00 | 0.00 | 57 | 1009.1 |
| 20260506130909 | 14 | 19 | 6.4 | 20.9 | 0.00 | 0.00 | 0.00 | 54 | 1008.6 |
| 20260506120909 | 14 | 15 | 6.4 | 19.3 | 0.00 | 0.00 | 0.00 | 58 | 1008.4 |
| 20260506110907 | 15 | 44 | 8.0 | 22.5 | 0.00 | 0.00 | 0.00 | 49 | 1008.1 |
| 20260506100907 | 13 | 78 | 6.4 | 19.3 | 0.00 | 0.00 | 0.00 | 62 | 1008.0 |
| 20260506090906 | 13 | 76 | 4.8 | 16.1 | 0.00 | 0.00 | 0.00 | 68 | 1007.9 |
| 20260506080858 | 12 | 53 | 1.6 | 14.5 | 0.00 | 0.00 | 0.00 | 77 | 1007.5 |